When you browse on this site, cookies collect data to enhance your experience and personalize the content and advertising you see.
Visit our Privacy Policy to learn more. By continuing to use the site, you agree to this use of cookies and data.
  • In Hungary
  • List of Countries
  • For 7 days
  • Water Temperature
  • Satellite Maps
  • Weather Map
  • News
  • Weather Widgets
  • user-avatar
    Login

    Hourly Weather Qinglang

    Today, 19 April, Friday

    Time Temperature Precipitation Wind Pressure Humidity
    00:00 +20°C° 0 mm 0 mps 716 mmHg 96%
    01:00 +22°C° 0 mm 1 mps 716 mmHg 96%
    02:00 +22°C° 0 mm 1 mps 716 mmHg 97%
    03:00 +22°C° 0 mm 1 mps 716 mmHg 97%
    04:00 +21°C° 0 mm 1 mps 715 mmHg 98%
    05:00 +22°C° 0 mm 1 mps 716 mmHg 97%
    06:00 +22°C° 0 mm 1 mps 716 mmHg 95%
    07:00 +24°C° 0 mm 1 mps 716 mmHg 93%
    08:00 +24°C° 0.1 mm 1 mps 716 mmHg 91%
    09:00 +25°C° 0.1 mm 1 mps 717 mmHg 89%
    10:00 +25°C° 0.1 mm 1 mps 717 mmHg 87%
    11:00 +27°C° 0.7 mm 2 mps 716 mmHg 80%
    12:00 +29°C° 0.7 mm 2 mps 716 mmHg 73%
    13:00 +29°C° 0 mm 2 mps 716 mmHg 73%
    14:00 +29°C° 1 mm 2 mps 716 mmHg 72%
    15:00 +29°C° 1 mm 3 mps 716 mmHg 70%
    16:00 +29°C° 1 mm 3 mps 715 mmHg 69%
    17:00 +28°C° 0.6 mm 3 mps 716 mmHg 75%
    18:00 +26°C° 0.6 mm 2 mps 716 mmHg 82%
    19:00 +25°C° 0.6 mm 2 mps 716 mmHg 88%
    20:00 +24°C° 0.4 mm 2 mps 717 mmHg 90%
    21:00 +24°C° 0.4 mm 2 mps 717 mmHg 92%
    22:00 +23°C° 0.4 mm 2 mps 717 mmHg 94%
    23:00 +23°C° 0 mm 2 mps 717 mmHg 95%

    Tomorrow, 20 April, Saturday

    Time Temperature Precipitation Wind Pressure Humidity
    00:00 +21°C° 0 mm 2 mps 717 mmHg 96%
    01:00 +21°C° 0 mm 2 mps 716 mmHg 97%
    02:00 +21°C° 0.2 mm 2 mps 716 mmHg 97%
    03:00 +21°C° 0.2 mm 2 mps 716 mmHg 96%
    04:00 +21°C° 0.2 mm 2 mps 716 mmHg 96%
    05:00 +21°C° 0.1 mm 2 mps 716 mmHg 96%
    06:00 +21°C° 0.1 mm 2 mps 716 mmHg 95%
    07:00 +21°C° 0.1 mm 2 mps 716 mmHg 95%
    08:00 +21°C° 0.1 mm 2 mps 716 mmHg 94%
    09:00 +23°C° 0.1 mm 2 mps 717 mmHg 93%
    10:00 +23°C° 0.1 mm 2 mps 717 mmHg 92%
    11:00 +23°C° 0.1 mm 2 mps 717 mmHg 90%
    12:00 +24°C° 0.1 mm 2 mps 717 mmHg 88%
    13:00 +25°C° 0.1 mm 2 mps 716 mmHg 86%
    14:00 +25°C° 0 mm 2 mps 716 mmHg 85%
    15:00 +25°C° 0 mm 2 mps 716 mmHg 85%
    16:00 +26°C° 0 mm 2 mps 715 mmHg 84%
    17:00 +25°C° 0 mm 2 mps 715 mmHg 87%
    18:00 +24°C° 0 mm 1 mps 716 mmHg 91%
    19:00 +23°C° 0 mm 1 mps 716 mmHg 94%
    20:00 +23°C° 0 mm 1 mps 716 mmHg 94%
    21:00 +23°C° 0 mm 1 mps 717 mmHg 94%
    22:00 +23°C° 0 mm 1 mps 718 mmHg 94%
    23:00 +23°C° 0.1 mm 1 mps 717 mmHg 94%

    Day after tomorrow, 21 April, Sunday

    Time Temperature Precipitation Wind Pressure Humidity
    00:00 +23°C° 0.1 mm 1 mps 717 mmHg 94%
    01:00 +22°C° 0.1 mm 1 mps 717 mmHg 95%
    02:00 +22°C° 0 mm 1 mps 717 mmHg 95%
    03:00 +22°C° 0 mm 1 mps 717 mmHg 95%
    04:00 +20°C° 0 mm 0 mps 716 mmHg 96%
    05:00 +20°C° 0 mm 0 mps 717 mmHg 94%
    06:00 +21°C° 0 mm 0 mps 717 mmHg 92%
    07:00 +21°C° 0 mm 0 mps 718 mmHg 91%
    08:00 +23°C° 0 mm 0 mps 718 mmHg 85%
    09:00 +27°C° 0 mm 1 mps 719 mmHg 79%
    10:00 +28°C° 0 mm 1 mps 719 mmHg 72%
    11:00 +29°C° 0 mm 1 mps 718 mmHg 71%
    12:00 +29°C° 0 mm 1 mps 718 mmHg 69%
    13:00 +30°C° 0 mm 1 mps 717 mmHg 68%
    14:00 +30°C° 0.1 mm 1 mps 717 mmHg 66%
    15:00 +31°C° 0.1 mm 1 mps 716 mmHg 65%
    16:00 +31°C° 0.1 mm 1 mps 716 mmHg 63%
    17:00 +30°C° 0.3 mm 1 mps 716 mmHg 72%
    18:00 +28°C° 0.3 mm 1 mps 716 mmHg 81%
    19:00 +26°C° 0.3 mm 2 mps 717 mmHg 89%
    20:00 +25°C° 0.7 mm 2 mps 717 mmHg 91%
    21:00 +25°C° 0.7 mm 2 mps 718 mmHg 93%
    22:00 +24°C° 0.7 mm 2 mps 718 mmHg 95%
    23:00 +24°C° 2.5 mm 3 mps 718 mmHg 95%

    22 April, Monday

    Time Temperature Precipitation Wind Pressure Humidity
    00:00 +22°C° 2.5 mm 3 mps 717 mmHg 95%
    01:00 +22°C° 2.5 mm 3 mps 717 mmHg 96%
    02:00 +23°C° 0.2 mm 2 mps 717 mmHg 96%
    03:00 +21°C° 0.2 mm 2 mps 717 mmHg 96%
    04:00 +21°C° 0.2 mm 2 mps 717 mmHg 95%
    05:00 +21°C° 0.1 mm 2 mps 717 mmHg 95%
    06:00 +21°C° 0.1 mm 2 mps 717 mmHg 94%
    07:00 +23°C° 0.1 mm 2 mps 718 mmHg 94%
    08:00 +24°C° 0.1 mm 2 mps 718 mmHg 90%
    09:00 +25°C° 0.1 mm 1 mps 718 mmHg 86%
    10:00 +27°C° 0.1 mm 1 mps 719 mmHg 82%
    11:00 +27°C° 0.9 mm 1 mps 718 mmHg 83%
    12:00 +27°C° 0.9 mm 1 mps 718 mmHg 84%
    13:00 +27°C° 0.9 mm 2 mps 717 mmHg 84%
    14:00 +27°C° 0.4 mm 2 mps 717 mmHg 84%
    15:00 +27°C° 0.4 mm 2 mps 717 mmHg 84%
    16:00 +27°C° 0.4 mm 2 mps 716 mmHg 84%
    17:00 +26°C° 0.7 mm 2 mps 717 mmHg 88%
    18:00 +25°C° 0.7 mm 1 mps 717 mmHg 92%
    19:00 +24°C° 0.7 mm 1 mps 717 mmHg 96%
    20:00 +24°C° 0.6 mm 1 mps 718 mmHg 96%
    21:00 +24°C° 0.6 mm 1 mps 718 mmHg 96%
    22:00 +23°C° 0.6 mm 1 mps 719 mmHg 96%
    23:00 +23°C° 0.7 mm 2 mps 718 mmHg 96%

    23 April, Tuesday

    Time Temperature Precipitation Wind Pressure Humidity
    00:00 +23°C° 0.7 mm 2 mps 718 mmHg 96%
    01:00 +21°C° 0.7 mm 2 mps 718 mmHg 96%
    02:00 +21°C° 0.1 mm 2 mps 718 mmHg 97%
    03:00 +22°C° 0.1 mm 1 mps 717 mmHg 97%
    04:00 +22°C° 0.1 mm 1 mps 717 mmHg 98%
    05:00 +22°C° 0.1 mm 1 mps 718 mmHg 97%
    06:00 +22°C° 0.1 mm 1 mps 718 mmHg 96%
    07:00 +22°C° 0.1 mm 1 mps 719 mmHg 96%
    08:00 +23°C° 0 mm 1 mps 719 mmHg 93%
    09:00 +23°C° 0 mm 1 mps 719 mmHg 91%
    10:00 +24°C° 0 mm 1 mps 720 mmHg 88%
    11:00 +25°C° 0 mm 1 mps 719 mmHg 86%
    12:00 +26°C° 0 mm 1 mps 719 mmHg 84%
    13:00 +27°C° 0 mm 1 mps 718 mmHg 82%
    14:00 +27°C° 0.1 mm 2 mps 718 mmHg 83%
    15:00 +27°C° 0.1 mm 2 mps 718 mmHg 83%
    16:00 +27°C° 0.1 mm 2 mps 717 mmHg 84%
    17:00 +26°C° 0.1 mm 2 mps 717 mmHg 88%
    18:00 +25°C° 0.1 mm 2 mps 718 mmHg 93%
    19:00 +24°C° 0.1 mm 2 mps 718 mmHg 97%
    20:00 +24°C° 2.4 mm 1 mps 718 mmHg 97%
    21:00 +24°C° 2.4 mm 1 mps 718 mmHg 97%
    22:00 +24°C° 2.4 mm 1 mps 719 mmHg 98%
    23:00 +24°C° 2.1 mm 1 mps 718 mmHg 98%

    24 April, Wednesday

    Time Temperature Precipitation Wind Pressure Humidity
    00:00 +24°C° 2.1 mm 1 mps 718 mmHg 98%
    01:00 +24°C° 2.1 mm 1 mps 717 mmHg 98%
    02:00 +24°C° 0.7 mm 1 mps 717 mmHg 98%
    03:00 +24°C° 0.7 mm 1 mps 717 mmHg 98%
    04:00 +24°C° 0.7 mm 1 mps 717 mmHg 98%
    05:00 +24°C° 0.2 mm 1 mps 718 mmHg 97%
    06:00 +25°C° 0.2 mm 1 mps 718 mmHg 96%
    07:00 +25°C° 0.2 mm 1 mps 718 mmHg 95%
    08:00 +26°C° 0.1 mm 1 mps 719 mmHg 93%
    09:00 +26°C° 0.1 mm 1 mps 719 mmHg 92%
    10:00 +27°C° 0.1 mm 1 mps 719 mmHg 90%
    11:00 +28°C° 0.4 mm 1 mps 719 mmHg 88%
    12:00 +28°C° 0.4 mm 1 mps 719 mmHg 86%
    13:00 +29°C° 0.4 mm 1 mps 718 mmHg 83%
    14:00 +30°C° 2.1 mm 1 mps 718 mmHg 80%
    15:00 +30°C° 2.1 mm 1 mps 718 mmHg 76%
    16:00 +31°C° 2.1 mm 1 mps 717 mmHg 72%
    17:00 +29°C° 0.2 mm 1 mps 718 mmHg 78%
    18:00 +27°C° 0.2 mm 1 mps 718 mmHg 84%
    19:00 +26°C° 0.2 mm 1 mps 718 mmHg 91%
    20:00 +25°C° 0.2 mm 1 mps 718 mmHg 92%
    21:00 +25°C° 0.2 mm 1 mps 719 mmHg 93%
    22:00 +24°C° 0.2 mm 1 mps 719 mmHg 95%
    23:00 +22°C° 0.9 mm 0 mps 719 mmHg 95%
    Show more